Location: Hénonville
(49.2073°N, 2.0526°E)
Time: 15:08:51
(UTC+00:00)

Daily predictions for brighter satellites

Satellite Brightness Start Highest point End
(mag) Time Altitude Azimuth Time Altitude Azimuth Time Altitude Azimuth
Cosmos 2297 Rocket 2.3 20:07:03 10° NNW 20:12:45 89° ENE 20:18:25 10° SSE
Cosmos 2233 Rocket 4.1 20:07:59 10° S 20:14:19 87° E 20:20:42 10° N
Cosmos 1315 Rocket 2.9 20:11:38 10° N 20:15:46 84° ENE 20:19:49 10° SSE
BREEZE-M DEB (TANK) 1.3 20:15:08 10° W 20:17:29 82° N 20:20:03 10° E
SPOT 5 4.1 20:13:00 10° SE 20:17:40 32° ENE 20:22:13 10° N
ARGOS Delta rocket 4.3 20:14:27 10° NNE 20:19:53 62° E 20:25:18 10° S
Resurs 01 Rocket 1.7 20:15:38 10° SSE 20:20:03 87° WSW 20:24:29 10° NNW
USA 267 4.3 20:14:05 10° ENE 20:20:15 46° N 20:26:24 10° WNW
Meteor 1-11 Rocket 4.0 20:14:23 10° N 20:20:20 62° ENE 20:26:13 10° SSE
BREEZE M DEB (TANK) 3.1 20:19:35 10° W 20:22:45 84° SSW 20:32:45 10° ESE
Cosmos 1633 Rocket 3.1 20:19:37 10° N 20:24:03 88° E 20:28:24 10° S
Cosmos 2208 Rocket 4.2 20:20:03 10° NNW 20:25:32 84° WSW 20:30:56 10° SSE
Cosmos 1151 Rocket 3.1 20:21:21 10° S 20:25:39 85° WNW 20:29:56 10° N
NOSS 3-2 (C) 4.3 20:18:40 10° NW 20:26:06 71° SW 20:34:39 10° SSE
Cosmos 389 Rocket 3.3 20:27:27 10° N 20:30:42 34° ENE 20:33:48 11° SE
Cosmos 1470 Rocket 3.6 20:27:00 10° N 20:31:20 64° ENE 20:35:36 10° SSE
ATLAS 3B R/B 4.2 20:26:45 10° NW 20:33:07 33° NNE 20:39:46 10° E
SJ 16-02 3.2 20:32:51 10° SE 20:35:00 14° E 20:37:11 10° ENE
Cosmos 968 Rocket 3.4 20:31:13 10° SSW 20:36:22 81° ESE 20:41:31 10° NNE
ISS -3.0 20:33:07 10° W 20:36:26 53° N 20:39:44 10° ENE
Cosmos 1464 Rocket 4.3 20:31:11 10° SSE 20:37:07 49° E 20:43:02 10° NNE
Cosmos 405 2.8 20:34:06 10° N 20:37:32 86° E 20:40:56 10° SSE
ERS-1 Rocket 3.7 20:33:40 10° SE 20:38:20 40° ENE 20:43:02 10° N
Terra 2.9 20:34:15 10° SE 20:38:25 31° ENE 20:42:35 10° N
MetOp-B 4.2 20:36:06 10° SSE 20:41:28 90° W 20:46:52 10° NNW
BREEZE M DEB (TANK) 3.9 20:40:25 10° WSW 20:44:44 72° SSE 21:01:47 10° ENE
IRAS Rocket 4.3 20:39:37 10° NNE 20:45:17 88° WNW 20:50:55 10° SSW
Cosmos 2219 3.2 20:39:48 10° NNW 20:45:29 85° WSW 20:50:53 11° SSE
CENTAUR R/B 4.1 20:38:40 10° NW 20:46:22 43° WSW 20:54:41 10° S
USA 238 DEB 4.4 20:39:20 10° NW 20:46:25 56° WSW 20:53:52 10° SSE
USA 238 4.4 20:39:27 10° NW 20:46:32 56° WSW 20:53:58 10° SSE
Aureole 1 Rocket 3.0 20:44:50 10° S 20:47:51 31° ESE 20:50:35 10° NE
Cosmos 1515 Rocket 3.7 20:43:52 10° S 20:48:07 58° E 20:52:27 10° NNE
ATLAS CENTAUR R/B 4.4 20:51:14 10° NNW 20:53:47 14° N 20:56:20 10° NE
Cosmos 2082 3.9 20:49:31 10° NNW 20:55:09 65° ENE 20:59:56 14° SE
Ariane Rocket 3.6 20:50:48 10° S 20:55:46 55° W 21:00:47 10° NNW
Nadezhda 4 Rocket 4.1 20:50:22 10° N 20:56:36 62° ENE 21:02:08 13° SSE
Timation 2 Rocket 4.4 20:50:55 10° NNW 20:57:22 63° NE 21:03:12 14° SE
RESURS DK-1 4.2 20:57:48 13° ESE 20:58:37 14° ESE 21:00:42 10° ENE
Cosmos 1515 3.6 20:55:11 10° S 20:58:57 78° E 21:02:44 10° NNE
Cosmos 1869 Rocket 4.3 20:54:54 10° N 20:59:08 39° ENE 21:02:21 16° SE
USA 245 4.5 20:54:40 10° SSE 21:00:17 84° WSW 21:06:39 10° NNW
Cosmos 1536 2.9 20:57:56 10° NNW 21:01:58 76° W 21:05:46 11° S
CARTOSAT-1 3.8 20:58:22 10° S 21:02:40 69° WSW 21:06:59 10° NNW
ARIANE 5 R/B 3.4 20:59:19 15° SE 21:02:41 40° ENE 21:06:54 10° N
SPOT 3 Rocket 3.7 20:59:33 10° S 21:04:41 72° WSW 21:09:51 10° NNW
Cosmos 1743 2.8 21:03:25 10° NNW 21:07:14 75° W 21:10:30 13° S
Cosmos 2263 Rocket 2.8 21:03:04 10° NNW 21:08:27 45° NE 21:12:52 15° ESE
Cosmos 1072 Rocket 4.5 21:03:33 10° S 21:09:39 89° E 21:15:49 10° N
Okean 1 3.8 21:07:59 17° SSE 21:10:46 43° E 21:14:36 10° NNE
Cosmos 921 Rocket 3.2 21:07:23 10° NNW 21:11:56 70° ENE 21:15:10 18° SSE
Helios 1A Rocket 3.0 21:10:59 14° S 21:14:20 72° WSW 21:18:22 10° NNW
Meteor 1-19 Rocket 4.4 21:10:30 13° SSE 21:15:08 51° E 21:20:22 10° NNE
ASTRO F (AKARI) 4.1 21:16:56 23° SSE 21:18:41 78° ENE 21:21:49 10° NNW
Cosmos 2344 3.5 21:11:35 10° SSW 21:18:54 59° ESE 21:26:24 10° NE
Cosmos 2227 Rocket 3.0 21:13:45 10° NW 21:19:07 45° WSW 21:24:07 12° S
Cosmos 2292 Rocket 3.7 21:16:59 10° N 21:19:59 32° ENE 21:21:13 22° ESE
Cosmos 1354 Rocket 4.3 21:15:23 12° S 21:20:02 47° ESE 21:25:07 10° NNE
Cosmos 1340 2.8 21:16:39 10° SSW 21:20:22 75° WNW 21:24:08 10° N
BREEZE-M DEB (TANK) 1.5 21:18:17 10° W 21:20:42 87° NNW 21:23:02 10° E
Cosmos 2026 Rocket 4.4 21:16:00 10° N 21:21:57 49° ENE 21:26:19 18° SE
SL-4 R/B 2.5 21:18:37 10° WNW 21:23:02 52° SSW 21:25:33 22° SE
USA 215 4.0 21:20:05 10° ENE 21:25:41 29° SE 21:31:15 10° S
Meteor 2-14 Rocket 4.4 21:21:37 10° N 21:27:43 86° E 21:32:33 17° S
Cosmos 1486 Rocket 4.2 21:23:30 10° SSW 21:28:49 78° WNW 21:34:08 10° NNE
Spot 2 Rocket 3.7 21:25:35 15° S 21:29:44 68° WSW 21:34:47 10° NNW
Meteor 2-4 Rocket 4.4 21:26:19 19° SSE 21:29:57 39° E 21:35:10 10° NNE
Cosmos 1975 3.5 21:26:27 10° N 21:30:22 43° ENE 21:32:28 23° SE
Cosmos 2369 3.6 21:27:06 10° SSW 21:32:42 70° ESE 21:38:21 10° NNE
Cosmos 1980 Rocket 2.2 21:27:12 10° SSW 21:32:44 61° ESE 21:38:19 10° NE
Cosmos 44 Rocket 4.0 21:29:14 10° NNW 21:33:46 43° NE 21:37:15 16° ESE
Cosmos 773 Rocket 4.0 21:29:53 10° NNW 21:35:10 81° ENE 21:38:32 22° SSE
Cosmos 2034 Rocket 4.0 21:31:00 10° S 21:37:17 88° W 21:43:41 10° N
Cosmos 2322 Rocket 3.9 21:37:57 14° ESE 21:39:07 15° E 21:42:08 10° ENE
SAR-Lupe-4 4.1 21:36:54 10° NNE 21:40:19 39° E 21:41:31 29° SE
CZ-4B R/B 4.5 21:39:58 10° NW 21:41:23 12° WNW 21:42:46 10° W
SWAS 4.5 21:37:13 10° NNW 21:41:32 75° WSW 21:43:54 26° SSE
EXPRESS MD2 4.0 21:37:41 10° WNW 21:42:10 32° SW 21:43:14 26° S
Meteor 1-4 Rocket 4.5 21:42:37 10° NNE 21:45:01 17° ENE 21:46:14 15° E
Cosmos 1184 Rocket 4.1 21:44:28 10° SW 21:47:15 35° WNW 21:50:05 10° N
Cosmos 1844 Rocket 4.3 21:44:51 10° NNW 21:49:31 26° NE 21:54:08 10° E
ATLAS 2AS CENTAUR R/B 3.1 21:43:31 10° SSW 21:51:04 55° ESE 21:58:24 10° NE
Cosmos 1697 Rocket 3.4 21:47:58 10° SW 21:53:32 55° NW 21:59:08 10° NNE
Meteor 1-18 Rocket 4.2 21:50:24 20° S 21:54:31 72° E 22:00:09 10° NNE
SPOT 5 3.9 21:51:21 15° SSW 21:55:34 44° W 22:00:33 10° NNW
NOSS 3-4 (A) 3.9 21:49:52 10° WSW 21:55:35 63° NW 22:01:52 10° NE
NOSS 3-4 (C) 3.8 21:49:56 10° SW 21:55:40 63° NW 22:01:58 10° NE
Cosmos 2227 4.4 21:50:10 10° NNW 21:55:55 66° ENE 21:59:27 24° SE
Cosmos 2297 Rocket 4.4 21:52:37 10° WNW 21:56:00 16° W 21:59:22 10° SW
Cosmos 482 Debris 4.1 21:53:39 10° WNW 21:56:47 79° SSW 21:59:28 24° ESE
Resurs 01 Rocket 4.4 21:56:11 10° W 21:57:14 11° W 21:58:16 10° WNW
Cosmos 1503 Rocket 4.2 21:52:00 10° SSW 21:57:16 75° WNW 22:02:38 10° NNE
Cosmos 1733 Rocket 3.4 21:53:33 10° N 21:57:56 53° ENE 21:59:56 29° SE
ALOS 2 4.5 21:58:43 13° E 22:01:07 20° ENE 22:04:18 10° NNE
SAR-Lupe-1 3.9 21:57:32 10° NNE 22:01:08 80° ESE 22:02:41 32° S
Cosmos 1538 Rocket 4.2 21:56:53 10° NNW 22:02:08 61° ENE 22:04:59 26° SE
USA 267 3.6 21:56:17 10° ESE 22:02:46 66° NNE 22:09:14 10° NW
Cosmos 2279 Rocket 4.3 22:03:28 25° SSE 22:06:54 52° E 22:12:54 10° NNE
Meteor 2-8 Rocket 4.4 22:03:30 23° S 22:07:24 70° E 22:13:28 10° NNE
Cosmos 1862 Rocket 4.0 22:07:49 32° SE 22:09:25 46° E 22:13:43 10° NNE
Cosmos 1378 3.1 22:10:25 30° SSW 22:12:04 75° W 22:15:45 10° N
SJ 16-02 1.5 22:09:38 17° SSW 22:12:57 73° WNW 22:17:21 10° NNE
ISS -3.9 22:10:01 10° WNW 22:13:22 90° WNW 22:14:25 41° ESE
Cosmos 1733 4.1 22:11:24 10° N 22:14:57 37° ENE 22:16:00 30° ESE
SL-16 R/B 2.8 22:13:00 28° SSE 22:15:05 38° ESE 22:20:16 10° NE
Terra 2.9 22:13:05 18° SSW 22:16:04 38° W 22:20:32 10° NNW
ERS-1 Rocket 4.3 22:13:37 14° SSW 22:17:12 31° W 22:21:42 10° NNW
Cosmos 158 Rocket 4.0 22:13:39 10° NNW 22:18:44 76° WSW 22:21:14 31° S
Cosmos 2228 Rocket 3.9 22:17:27 16° SSW 22:20:52 50° WNW 22:25:21 10° N
Spot 4 4.4 22:19:06 27° SE 22:21:20 47° ENE 22:25:57 10° N
Meteor 2-15 4.4 22:21:00 25° S 22:24:45 85° E 22:30:51 10° N
ATLAS 3B R/B 3.0 22:17:36 10° NW 22:24:57 78° NE 22:30:15 22° SE
SL-24 R/B - RUBIN 2 3.5 22:20:51 10° NW 22:25:15 89° SW 22:27:02 36° SE
NOSS 2-1 (E) 4.3 22:28:40 24° E 22:28:40 24° E 22:30:28 10° ENE
Cosmos 1346 Rocket 2.7 22:26:44 37° SSW 22:28:15 87° W 22:32:19 10° NNE
Cosmos 2278 3.8 22:28:05 14° SSW 22:33:02 78° WNW 22:38:47 10° NNE
ATLAS CENTAUR R/B 3.5 22:29:56 10° NNW 22:34:10 28° NNE 22:38:17 10° E
RESURS DK-1 2.5 22:33:35 23° SW 22:36:03 72° WNW 22:40:11 10° NNE
ARIANE 5 R/B 4.3 22:36:51 17° SW 22:39:15 26° W 22:43:03 10° NW
CZ-4C R/B 4.1 22:35:30 10° NW 22:41:38 37° NNE 22:48:55 10° E
Cosmos 1680 Rocket 4.2 22:38:37 10° NNW 22:43:46 48° ENE 22:46:30 26° ESE
Cosmos 1634 Rocket 4.4 22:39:35 18° SSW 22:44:10 60° WNW 22:50:19 10° N
Cosmos 2360 Rocket 3.1 22:44:33 28° SE 22:45:54 31° ESE 22:50:48 10° NE
Cosmos 1655 Rocket 4.1 22:43:22 10° N 22:49:37 67° ENE 22:52:38 32° SSE
Cosmos 2263 Rocket 3.2 22:47:14 10° NW 22:52:15 35° WSW 22:54:33 25° SSW
Cosmos 1441 Rocket 3.1 22:54:07 54° SSW 22:54:54 83° WNW 22:58:39 10° N
Cosmos 1356 3.1 22:58:53 79° SE 22:59:01 82° E 23:02:20 10° NNE
Cosmos 990 Rocket 4.1 22:57:57 39° S 22:59:46 61° ESE 23:04:57 10° NNE
Cosmos 1898 Rocket 4.1 22:58:42 35° SE 23:00:10 43° ESE 23:05:11 10° NE
SL-4 R/B 4.4 22:59:52 10° WSW 23:01:00 12° WSW 23:01:00 12° WSW
Cosmos 1066 Rocket 4.2 22:59:04 33° S 23:01:52 90° E 23:07:36 10° NNE
NOSS 2-1 (C) 2.6 23:03:56 84° SSE 23:03:58 85° SE 23:07:14 10° NE
NOSS 2-1 (D) 2.6 23:05:15 86° SSW 23:05:19 88° ESE 23:08:35 10° NE
Okean 1-7 3.1 23:06:11 48° SSE 23:07:15 67° E 23:11:37 10° NNE
ERS-2 2.3 23:05:00 10° NNE 23:08:33 51° ESE 23:08:43 51° ESE
USA 215 3.2 23:02:42 10° ENE 23:09:18 84° SSE 23:15:52 10° SW
Meteor 2-10 4.0 23:04:08 10° NNW 23:09:30 79° W 23:11:25 40° S
Cosmos 44 Rocket 4.0 23:10:57 10° NW 23:15:11 34° WSW 23:15:56 32° SW
Cosmos 2333 Rocket 3.2 23:14:42 28° SE 23:15:59 31° ESE 23:20:53 10° NE
Cosmos 1980 Rocket 4.0 23:12:14 10° WSW 23:17:08 29° NW 23:22:05 10° NNE
Cosmos 1805 3.9 23:13:48 10° NNW 23:17:31 43° W 23:18:14 38° SW
Cosmos 1703 Rocket 3.5 23:17:22 50° S 23:18:31 82° E 23:22:59 10° NNE
Meteor 1-4 Rocket 3.4 23:16:47 10° NNW 23:19:59 35° W 23:20:13 34° WSW
Cosmos 2322 Rocket 2.1 23:19:43 34° SSW 23:22:18 86° ESE 23:27:56 10° NNE
Iridium 4 Rocket 3.3 23:21:16 10° N 23:25:39 65° W 23:27:04 42° SSW
Cosmos 1766 3.3 23:22:52 10° NNW 23:26:46 65° W 23:27:21 55° SW
Cosmos 1726 2.0 23:24:10 10° NNW 23:27:50 70° W 23:28:10 64° SW
Cosmos 1782 Rocket 3.4 23:27:30 10° N 23:31:53 86° W 23:32:52 53° S
Cosmos 2242 Rocket 3.6 23:31:12 49° S 23:32:25 86° E 23:37:01 10° N
Cosmos 1844 Rocket 2.6 23:28:22 10° NNW 23:33:57 71° WSW 23:35:57 40° S
Okean 3 3.4 23:33:54 54° SSW 23:34:49 84° W 23:39:05 10° N
Cosmos 1674 4.3 23:36:22 21° E 23:36:45 21° E 23:39:39 10° NE
ALOS 2 2.9 23:36:07 44° SW 23:37:05 54° W 23:41:25 10° NNW
Meteor 1-15 Rocket 4.4 23:33:11 10° NNW 23:38:44 63° W 23:40:53 37° SSW
ADEOS Rocket 2.7 23:37:58 38° SSE 23:40:14 85° WSW 23:46:10 10° NNW
Cosmos 2266 Rocket 4.4 23:35:45 10° NNW 23:41:51 53° W 23:44:34 31° SSW
ATLAS 2AS CENTAUR R/B 3.7 23:34:40 10° WSW 23:42:13 52° NW 23:49:29 10° NE
Cosmos 1626 3.9 23:41:56 20° E 23:42:19 20° E 23:45:05 10° NE
H-2A R/B 4.0 23:38:58 10° N 23:42:55 50° WNW 23:44:11 36° WSW
Okean 2 Rocket 4.1 23:38:44 10° N 23:42:59 39° ENE 23:44:42 28° ESE
Cosmos 1908 Rocket 4.4 23:39:16 10° NNW 23:43:15 36° W 23:44:14 32° WSW
Cosmos 1844 3.7 23:38:58 10° NNW 23:44:46 70° WSW 23:46:56 39° S
USA 267 3.4 23:42:55 32° SSE 23:45:53 56° SW 23:52:19 10° WNW
ISS -1.1 23:47:09 10° W 23:47:20 11° W 23:47:20 11° W
Cosmos 2219 Rocket 2.7 23:50:24 35° SSE 23:52:00 43° ESE 23:57:16 10° NE
Cosmos 2237 4.5 23:48:59 26° SW 23:52:11 66° WNW 23:57:56 10° NNE
SJ 16-02 4.2 23:50:38 10° WNW 23:52:21 12° NW 23:54:05 10° NNW
Cosmos 1461 4.0 23:49:13 10° NNW 23:53:09 42° NE 23:56:05 17° ESE
Cosmos 1300 Rocket 3.4 23:50:21 10° N 23:54:42 89° ENE 23:55:42 53° S
Cosmos 1238 Rocket 3.6 23:52:39 10° NNE 23:55:16 27° ENE 23:55:22 27° E
